CW8081 Thessaloniki GR current weather conditions

sailwx.info

Wind from 226 at 5 knots gusting 10

Air temperature 20.6° C
Dewpoint 11.2° C

Last reported at 2018-Apr-21 11:01 UTC.
Time now 2018-Apr-21 11:45 UTC

Location: N 40°34' E 022°58'.
View on Google Maps.

See reports from other nearby stations

  
Tides and Currents Weather Stations Pressure Air Temp Water Temp Dewpoint Dewpoint Depression Visibility Wind Speed Wind Dir Waves Ship Positions
date/time (UTC)wind fromknots sea level pressurealtimeterstation pressurevisibilityair tempwater tempwave heightnotes
2018-Apr-21 11:01 226 5 gusting 10 20.6
2018-Apr-21 10:46 220 4 gusting 8 20.0
2018-Apr-21 10:41 219 6 gusting 8 19.4
2018-Apr-21 10:11 215 4 gusting 6 18.9
2018-Apr-21 10:01 210 5 gusting 8 18.9
2018-Apr-21 09:46 252 3 gusting 6 18.9
2018-Apr-21 09:36 205 3 gusting 6 18.9
2018-Apr-21 09:31 251 4 gusting 6 18.9
2018-Apr-21 09:16 262 3 gusting 6 18.3
2018-Apr-21 09:11 225 2 gusting 6 18.3
2018-Apr-21 09:06 237 4 gusting 6 18.3
2018-Apr-21 09:01 238 4 gusting 6 18.3
2018-Apr-21 08:36 223 4 gusting 6 17.8
2018-Apr-21 08:11 227 4 gusting 6 17.2
2018-Apr-21 08:01 220 1 gusting 6 16.7
2018-Apr-21 07:46 228 1 gusting 6 16.1
2018-Apr-21 07:41 273 2 gusting 4 16.1
2018-Apr-21 07:36 262 1 gusting 5 16.1
2018-Apr-21 07:31 263 1 gusting 5 15.6
2018-Apr-21 07:16 249 2 gusting 6 15.6
2018-Apr-21 07:06 267 3 gusting 5 15.6
2018-Apr-21 06:46 271 4 gusting 6 15.0
2018-Apr-21 06:36 216 2 gusting 5 14.4
2018-Apr-21 06:31 242 3 gusting 6 14.4
2018-Apr-21 06:16 219 4 gusting 6 14.4
2018-Apr-21 06:11 229 0 gusting 4 13.9
2018-Apr-21 06:06 237 13.9
2018-Apr-21 05:46 005 13.3
2018-Apr-21 05:36 005 12.8
2018-Apr-21 05:31 005 12.8
2018-Apr-21 05:16 349 12.2
2018-Apr-21 05:11 354 11.7
2018-Apr-21 05:06 351 11.7
2018-Apr-21 04:46 11.1
2018-Apr-21 04:41 11.1
2018-Apr-21 04:36 11.1
2018-Apr-21 04:11 345 10.6
2018-Apr-21 03:41 088 10.6
2018-Apr-21 03:36 088 10.6
2018-Apr-21 03:31 088 10.6
2018-Apr-21 03:16 088 10.6
2018-Apr-21 03:06 088 10.6
2018-Apr-21 03:01 088 11.1
2018-Apr-21 02:41 088 11.1
2018-Apr-21 02:36 088 11.1
2018-Apr-21 02:31 088 11.1
2018-Apr-21 02:11 088 11.1
2018-Apr-21 02:06 088 11.1
2018-Apr-21 02:01 088 11.1
2018-Apr-21 01:46 145 11.1
2018-Apr-21 01:41 145 11.1
2018-Apr-21 01:36 145 11.1
2018-Apr-21 01:31 145 11.1
2018-Apr-21 01:16 144 11.7
2018-Apr-21 01:06 145 11.7
2018-Apr-21 01:01 145 11.7
2018-Apr-21 00:46 144 12.2
2018-Apr-21 00:41 144 12.2
2018-Apr-21 00:36 144 12.2
2018-Apr-21 00:11 144 12.2
2018-Apr-21 00:06 144 12.8
2018-Apr-21 00:01 144 12.8
2018-Apr-20 23:46 144 12.8
2018-Apr-20 23:41 144 12.8
2018-Apr-20 23:16 144 12.8
2018-Apr-20 23:11 144 12.8
2018-Apr-20 23:06 144 12.8
2018-Apr-20 23:01 144 12.8
2018-Apr-20 22:46 144 12.8
2018-Apr-20 22:41 144 12.8
2018-Apr-20 22:36 144 12.8
2018-Apr-20 22:31 144 12.8
2018-Apr-20 22:11 196 13.3
2018-Apr-20 21:41 197 13.3
2018-Apr-20 21:36 197 13.3
2018-Apr-20 21:16 197 13.3
2018-Apr-20 21:01 197 13.3
2018-Apr-20 20:46 197 13.3
2018-Apr-20 20:36 197 13.9
2018-Apr-20 20:16 197 13.9
2018-Apr-20 20:11 197 13.9
2018-Apr-20 20:06 198 13.9
2018-Apr-20 20:01 198 13.9
2018-Apr-20 19:41 198 2 gusting 4 13.9
2018-Apr-20 19:36 204 14.4
2018-Apr-20 19:31 204 14.4
2018-Apr-20 19:16 204 14.4
2018-Apr-20 19:11 204 14.4
2018-Apr-20 19:06 204 15.0
2018-Apr-20 19:01 204 0 gusting 1 15.0
2018-Apr-20 18:46 197 15.0
2018-Apr-20 18:41 197 15.0
2018-Apr-20 18:31 197 15.0
2018-Apr-20 18:16 197 15.0
2018-Apr-20 18:11 197 1 gusting 2 15.0
2018-Apr-20 18:06 187 0 gusting 2 15.0
2018-Apr-20 18:01 185 15.6
2018-Apr-20 17:41 179 15.6
2018-Apr-20 17:36 165 0 gusting 5 15.6
2018-Apr-20 17:31 155 0 gusting 6 15.6
2018-Apr-20 17:16 184 0 gusting 5 16.1
2018-Apr-20 17:06 184 3 gusting 6 16.7
2018-Apr-20 17:01 157 0 gusting 7 16.7
2018-Apr-20 16:46 191 2 gusting 6 17.2
2018-Apr-20 16:36 199 3 gusting 6 17.8
2018-Apr-20 16:16 161 2 gusting 6 17.8
2018-Apr-20 16:06 177 4 gusting 6 17.8
2018-Apr-20 16:01 148 2 gusting 12 17.8
2018-Apr-20 15:46 145 1 gusting 10 18.3
2018-Apr-20 15:41 138 2 gusting 10 18.3
2018-Apr-20 15:36 132 4 gusting 13 18.3
2018-Apr-20 15:06 138 4 gusting 10 18.9
2018-Apr-20 15:01 135 4 gusting 12 19.4
2018-Apr-20 14:46 138 6 gusting 13 20.0
2018-Apr-20 14:41 137 2 gusting 13 20.0
2018-Apr-20 14:36 151 6 gusting 13 20.6
2018-Apr-20 14:31 138 6 gusting 13 20.6
2018-Apr-20 14:16 149 4 gusting 10 20.6
2018-Apr-20 14:11 132 3 gusting 10 20.0
2018-Apr-20 14:01 143 4 gusting 10 20.0
2018-Apr-20 13:46 148 5 gusting 13 20.6
2018-Apr-20 13:41 165 1 gusting 8 20.6
2018-Apr-20 13:36 147 21.1
2018-Apr-20 13:31 129 3 gusting 10 21.1
2018-Apr-20 13:16 102 21.7
2018-Apr-20 13:06 164 5 gusting 10 22.2
2018-Apr-20 12:46 167 5 gusting 11 23.9
2018-Apr-20 12:31 138 2 gusting 10 23.9
2018-Apr-20 12:16 089 0 gusting 6 23.9
2018-Apr-20 12:11 157 2 gusting 8 23.9
2018-Apr-20 12:06 142 4 gusting 8 23.9
2018-Apr-20 12:01 112 2 gusting 10 23.9
2018-Apr-20 11:46 158 5 gusting 10 23.3
2018-Apr-20 11:41 143 4 gusting 10 23.3
2018-Apr-20 11:36 144 3 gusting 10 22.8
2018-Apr-20 11:16 157 6 gusting 13 22.8
2018-Apr-20 11:06 185 5 gusting 13 23.9
2018-Apr-20 11:01 140 5 gusting 13 24.4
2018-Apr-20 10:46 322 4 gusting 10 25.6
2018-Apr-20 10:36 326 1 gusting 5 25.6
2018-Apr-20 10:16 316 3 gusting 6 25.0
2018-Apr-20 10:11 014 1 gusting 6 25.0
2018-Apr-20 10:01 335 2 gusting 7 25.0
2018-Apr-20 09:41 286 4 gusting 8 24.4
2018-Apr-20 09:16 324 6 gusting 11 23.9
2018-Apr-20 09:11 351 4 gusting 12 23.9
2018-Apr-20 09:06 336 2 gusting 10 23.9
2018-Apr-20 08:46 355 7 gusting 17 23.3
2018-Apr-20 08:41 003 8 gusting 13 23.3
2018-Apr-20 08:36 005 8 gusting 13 23.3
2018-Apr-20 08:31 345 6 gusting 15 23.3
2018-Apr-20 08:16 321 6 gusting 15 22.8
2018-Apr-20 07:46 346 7 gusting 15 22.2
2018-Apr-20 07:41 351 8 gusting 18 22.2
2018-Apr-20 07:36 286 5 gusting 10 22.2
2018-Apr-20 07:31 351 6 gusting 11 21.7
2018-Apr-20 07:16 342 1 gusting 6 21.1
2018-Apr-20 07:11 327 4 gusting 12 21.1
2018-Apr-20 07:06 331 5 gusting 10 21.1
2018-Apr-20 06:46 292 3 gusting 10 20.6
2018-Apr-20 06:41 334 3 gusting 12 20.0
2018-Apr-20 06:31 356 7 gusting 11 20.0
2018-Apr-20 06:16 349 7 gusting 13 19.4
2018-Apr-20 06:11 002 7 gusting 12 19.4
2018-Apr-20 06:06 359 6 gusting 13 19.4
2018-Apr-20 06:01 346 4 gusting 11 19.4
2018-Apr-20 05:46 347 5 gusting 10 18.9
2018-Apr-20 05:36 354 6 gusting 13 18.9
2018-Apr-20 05:16 350 10 gusting 17 18.9
2018-Apr-20 05:11 356 5 gusting 8 18.9
2018-Apr-20 05:06 356 6 gusting 10 18.9
2018-Apr-20 05:01 008 6 gusting 13 18.3
2018-Apr-20 04:46 350 5 gusting 11 18.3
2018-Apr-20 04:41 335 5 gusting 10 18.3
2018-Apr-20 04:16 012 4 gusting 10 17.8
2018-Apr-20 04:06 017 4 gusting 8 18.3
2018-Apr-20 04:01 005 5 gusting 12 18.3
2018-Apr-20 03:41 001 5 gusting 10 18.3
2018-Apr-20 03:36 352 6 gusting 10 18.3
2018-Apr-20 03:31 018 5 gusting 10 18.3
2018-Apr-20 03:06 002 5 gusting 10 18.3
2018-Apr-20 03:01 18.3
2018-Apr-20 02:41 019 4 gusting 10 18.3
2018-Apr-20 02:31 020 4 gusting 6 18.3
2018-Apr-20 02:11 028 4 gusting 6 18.3
2018-Apr-20 02:06 015 2 gusting 6 18.3
2018-Apr-20 02:01 358 4 gusting 7 18.3
2018-Apr-20 01:41 009 5 gusting 10 18.9
2018-Apr-20 01:36 013 4 gusting 7 18.9
2018-Apr-20 01:31 016 5 gusting 10 18.9
2018-Apr-20 01:16 002 5 gusting 10 18.3
2018-Apr-20 00:46 056 0 gusting 2 15.6
2018-Apr-20 00:41 066 16.1
2018-Apr-20 00:36 067 16.1
2018-Apr-20 00:31 066 16.1
2018-Apr-20 00:16 066 16.1
2018-Apr-20 00:01 066 16.1
2018-Apr-19 23:46 066 15.6
2018-Apr-19 23:36 066 15.6
2018-Apr-19 23:16 149 15.6
2018-Apr-19 23:06 149 15.6
2018-Apr-19 23:01 149 15.6
2018-Apr-19 22:46 149 15.6
2018-Apr-19 22:31 149 15.6
2018-Apr-19 22:16 149 15.6
2018-Apr-19 22:11 149 15.6
2018-Apr-19 22:01 149 15.6
2018-Apr-19 21:41 149 16.1
2018-Apr-19 21:36 149 16.1
2018-Apr-19 21:11 149 16.1
2018-Apr-19 21:06 149 16.7
2018-Apr-19 20:41 150 17.2
2018-Apr-19 20:36 150 17.2
2018-Apr-19 20:31 150 17.2
2018-Apr-19 20:16 150 17.8
2018-Apr-19 20:11 149 17.8
2018-Apr-19 20:06 149 17.8
2018-Apr-19 20:01 149 17.8
2018-Apr-19 19:46 149 18.3
2018-Apr-19 19:36 149 18.3
2018-Apr-19 19:31 149 18.3
2018-Apr-19 19:01 154 18.9
2018-Apr-19 18:46 154 18.9
2018-Apr-19 18:41 154 18.9
2018-Apr-19 18:36 154 19.4
2018-Apr-19 18:16 154 19.4
2018-Apr-19 18:11 154 19.4
2018-Apr-19 18:06 154 20.0
2018-Apr-19 18:01 154 20.0
2018-Apr-19 17:46 169 20.6
2018-Apr-19 17:41 169 20.6
2018-Apr-19 17:36 169 20.6
2018-Apr-19 17:31 169 20.6
2018-Apr-19 17:16 169 20.6
2018-Apr-19 17:11 169 20.6
2018-Apr-19 17:01 170 0 gusting 2 21.1
2018-Apr-19 16:36 200 22.2
2018-Apr-19 16:31 200 22.2
2018-Apr-19 16:16 203 22.2
2018-Apr-19 16:01 205 2 gusting 7 22.2
2018-Apr-19 15:46 235 4 gusting 6 22.2
2018-Apr-19 15:41 227 5 gusting 8 22.2
2018-Apr-19 15:31 219 4 gusting 8 22.8
2018-Apr-19 15:06 237 6 gusting 10 22.8
2018-Apr-19 14:46 224 6 gusting 8 23.3
2018-Apr-19 14:41 239 6 gusting 10 23.3
2018-Apr-19 14:36 210 5 gusting 10 23.3
2018-Apr-19 14:31 223 4 gusting 8 23.3
2018-Apr-19 14:16 221 5 gusting 7 23.9
2018-Apr-19 14:11 218 5 gusting 6 23.9
2018-Apr-19 14:01 227 2 gusting 6 24.4
2018-Apr-19 13:46 222 1 gusting 4 23.9
2018-Apr-19 13:41 217 1 gusting 4 23.9
2018-Apr-19 13:31 203 2 gusting 5 23.9
2018-Apr-19 13:11 215 2 gusting 4 23.9
2018-Apr-19 13:06 209 4 gusting 6 23.9
2018-Apr-19 13:01 214 4 gusting 6 23.9
2018-Apr-19 12:31 197 1 gusting 4 23.3
2018-Apr-19 12:16 221 1 gusting 4 23.3
2018-Apr-19 12:11 220 1 gusting 2 23.3
2018-Apr-19 12:06 213 0 gusting 2 22.8
2018-Apr-19 11:41 225 22.8
2018-Apr-19 11:31 227 0 gusting 2 22.8
2018-Apr-19 11:11 237 1 gusting 4 23.3
2018-Apr-19 11:06 238 2 gusting 6 23.3
2018-Apr-19 11:01 244 4 gusting 6 23.3